Regional Weather Roundup
Issued by NWS Kansas City/Pleasant Hill, MO

Home | Current Version | Previous Version | Graphics & Text | Print | Product List | Glossary Off
Versions: 1 2 3 4 5 6 7 8 9 10 11 12 13 14 15 16 17 18 19 20 21 22 23 24 25 26 27 28 29 30 31 32 33 34 35 36 37 38 39 40 41 42 43 44 45 46 47 48 49 50

520
ASUS43 KEAX 261310
RWREAX

WEATHER ROUNDUP FOR EASTERN KANSAS AND NORTHWEST MISSOURI
NATIONAL WEATHER SERVICE KANSAS CITY/PLEASANT HILL MO
800 AM CDT SUN MAR 26 2017

KSZ040-057-103>105-MOZ028-029-037-043-261400-
...KANSAS CITY METROPOLITAN AREA...

CITY           SKY/WX    TMP DP  RH WIND       PRES   REMARKS
K.C. INTL      CLOUDY    43  42  97 NW5       29.90S
K.C. DOWNTOWN  CLOUDY    45  42  89 NW3       29.90S
LEES SUMMIT    CLOUDY    44  44 100 W5        29.91R
OLATHE - IXD   CLOUDY    43  41  93 N5        29.90F
OLATHE - OJC   CLOUDY    43  42  97 N3        29.90S
LAWRENCE       CLOUDY    44  43  96 NE5       29.89F

$$

MOZ001>008-011>017-020>025-030>033-038>040-044>046-053-054-261400-
...NORTHERN AND CENTRAL MISSOURI...

CITY           SKY/WX    TMP DP  RH WIND       PRES   REMARKS
ST. JOSEPH     CLOUDY    43  42  97 NW6       29.91R
MOSBY          CLOUDY    43  43 100 CALM      29.91S
WARRENSBURG    CLOUDY    45  43  93 W6        29.91R FOG
WHITEMAN AFB   CLOUDY    46  46 100 W9        29.90R
CLINTON        CLOUDY    46  45  93 SW6       29.92S
SEDALIA        CLOUDY    48  32  53 W6        29.91R FOG
WARSAW         NOT AVBL
CHILLICOTHE      N/A     43  42  97 W6        29.90R
KIRKSVILLE     CLOUDY    44  44 100 W12       29.86R

$$

MOZ041-047>049-056>058-063>065-088>090-097-261400-
...EASTERN AND SOUTHERN MISSOURI...

CITY           SKY/WX    TMP DP  RH WIND       PRES   REMARKS
ST. LOUIS INTL CLOUDY    53  46  77 SW10      29.89R
SPIRIT OF STL  CLOUDY    51  48  89 SW7       29.89R
COLUMBIA       CLOUDY    48  48 100 W9        29.89R FOG
JEFFERSON CITY LGT RAIN  51  48  89 NW7       29.90R
ROLLA          CLOUDY    47  47 100 SW10      29.89R FOG
OSAGE BEACH    CLOUDY   N/A N/A N/A W9        29.92R
SPRINGFIELD    CLOUDY    47  44  90 W3        29.92S
BRANSON        MOCLDY    46  45  93 NW6       29.94S
JOPLIN         PTCLDY    46  45  96 CALM      29.93R
WEST PLAINS    CLOUDY    48  46  93 W5        29.95R FOG

$$

IAZ060-094-KSZ022-034>040-054-083-096-NEZ052-066-093-261400-
...KANSAS...SOUTHEAST NEBRASKA AND IOWA...

CITY           SKY/WX    TMP DP  RH WIND       PRES   REMARKS
TOPEKA         CLOUDY    44  43  96 W5        29.92R
MANHATTAN      CLOUDY    43  41  93 CALM      29.92R FOG
EMPORIA        CLOUDY    43  43 100 SW5       29.91S FOG
CHANUTE        CLOUDY    46  44  93 CALM      29.93R
WICHITA        CLOUDY    43  42  97 CALM      29.91R FOG
OMAHA          CLOUDY    40  37  89 N6        29.90S
LINCOLN        CLOUDY    40  39  97 N3        29.92R
FALLS CITY     CLOUDY    42  41  96 NW3       29.90S FOG
LAMONI         CLOUDY    41  40  96 NW9       29.87R
DES MOINES     FOG       41  40  96 N5        29.86R VSB 3/4

$$





USA.gov is the U.S. government's official web portal to all federal, state and local government web resources and services.